This is the latest recevied weather packets stored in our database for station/object ALANSN-2. If no packets are shown the sender has not sent any weather packets the latest 10 day(s).
| Time | Temp. | Humidity | Pressure | Rain* | Wind** | Luminosity | Snow |
|---|---|---|---|---|---|---|---|
| 1787970717 | 16.11° C | 92% | 1030.7 hPa | 0 mm | - | 0 W/m² | - |
| 1787970420 | 16.11° C | 92% | 1030.7 hPa | 0 mm | - | 0 W/m² | - |
| 1787970120 | 16.11° C | 92% | 1030.8 hPa | 0 mm | - | 0 W/m² | - |
| 1787969820 | 15.56° C | 93% | 1030.7 hPa | 0 mm | - | 0 W/m² | - |
| 1787969520 | 13.89° C | 97% | 1030.9 hPa | 0 mm | - | 0 W/m² | - |
| 1787969221 | 13.89° C | 97% | 1030.9 hPa | 0 mm | - | 0 W/m² | - |
| 1787968920 | 13.89° C | 96% | 1030.9 hPa | 0 mm | - | 0 W/m² | - |
| 1787968620 | 13.89° C | 96% | 1030.9 hPa | 0 mm | - | 0 W/m² | - |
| 1787968320 | 13.89° C | 96% | 1030.5 hPa | 0 mm | - | 0 W/m² | - |
| 1787968020 | 13.89° C | 96% | 1030.6 hPa | 0 mm | - | 0 W/m² | - |
| 1787967720 | 13.89° C | 96% | 1030.7 hPa | 0 mm | - | 0 W/m² | - |
| 1787967421 | 13.89° C | 96% | 1030.7 hPa | 0 mm | - | 0 W/m² | - |
| 1787967120 | 14.44° C | 95% | 1030.6 hPa | 0 mm | - | 0 W/m² | - |
| 1787966820 | 15° C | 94% | 1030.4 hPa | 0 mm | - | 0 W/m² | - |
| 1787966520 | 15° C | 94% | 1030.4 hPa | 0 mm | - | 0 W/m² | - |
| 1787966221 | 15° C | 94% | 1030.5 hPa | 0 mm | - | 0 W/m² | - |
| 1787965920 | 15.56° C | 92% | 1030.4 hPa | 0 mm | - | 0 W/m² | - |
| 1787965620 | 15.56° C | 92% | 1030.4 hPa | 0 mm | - | 0 W/m² | - |
| 1787965320 | 15.56° C | 92% | 1030.6 hPa | 0 mm | - | 0 W/m² | - |
| 1787965021 | 16.11° C | 90% | 1030.3 hPa | 0 mm | - | 0 W/m² | - |
| 1787964720 | 16.11° C | 90% | 1030.3 hPa | 0 mm | - | 0 W/m² | - |
| 1787964420 | 16.11° C | 90% | 1030.4 hPa | 0 mm | - | 0 W/m² | - |
| 1787964120 | 16.67° C | 90% | 1030.2 hPa | 0 mm | - | 0 W/m² | - |
| 1787963820 | 16.67° C | 90% | 1030.2 hPa | 0 mm | - | 0 W/m² | - |
| 1787963520 | 17.22° C | 88% | 1030.3 hPa | 0 mm | - | 0 W/m² | - |
* Rain latest hour (hover to see other rain measurements)
** Current wind speed in m/s (hover to see current wind gust speed)